Time,TemperatureF,DewpointF,PressureIn,WindDirection,WindDirectionDegrees,WindSpeedMPH,WindSpeedGustMPH,Humidity,HourlyPrecipIn,Conditions,Clouds,dailyrainin,SoftwareType,DateUTC
2013-04-13 00:00:00,46.9,45.0,29.78,West,273,0.0,4.0,93,0.00,,,0.37,VWS V14.01,2013-04-13 04:00:00,
2013-04-13 00:05:00,46.9,45.3,29.78,West,272,2.0,4.0,94,0.00,,BKN070,0.00,VWS V14.01,2013-04-13 04:05:00,
2013-04-13 00:10:00,47.0,45.1,29.78,West,272,1.0,4.0,93,0.00,,BKN070,0.06,VWS V14.01,2013-04-13 04:10:00,
2013-04-13 00:15:00,46.9,45.3,29.78,WSW,255,2.0,4.0,94,0.00,,BKN070,0.06,VWS V14.01,2013-04-13 04:15:00,
2013-04-13 00:20:00,47.0,45.4,29.78,WSW,255,1.0,4.0,94,0.00,,BKN070,0.00,VWS V14.01,2013-04-13 04:20:00,
2013-04-13 00:25:00,46.9,45.3,29.78,WSW,256,4.0,5.0,94,0.00,,BKN070,0.00,VWS V14.01,2013-04-13 04:25:00,
2013-04-13 00:30:00,47.0,45.4,29.78,West,265,2.0,3.0,94,0.00,,BKN070,0.00,VWS V14.01,2013-04-13 04:30:00,
2013-04-13 00:35:00,47.0,45.4,29.79,WSW,239,3.0,4.0,94,0.00,,BKN070,0.00,VWS V14.01,2013-04-13 04:35:00,
2013-04-13 00:40:00,47.0,45.4,29.79,WSW,243,0.0,4.0,94,0.00,,BKN070,0.00,VWS V14.01,2013-04-13 04:40:00,
2013-04-13 00:45:00,46.9,45.3,29.79,WSW,243,0.0,4.0,94,0.00,,BKN070,0.00,VWS V14.01,2013-04-13 04:45:00,
2013-04-13 00:50:00,46.9,45.3,29.79,WSW,243,0.0,4.0,94,0.00,,BKN070,0.00,VWS V14.01,2013-04-13 04:50:00,
2013-04-13 00:55:00,46.9,45.3,29.79,WSW,243,0.0,4.0,94,0.00,,BKN070,0.00,VWS V14.01,2013-04-13 04:55:00,
2013-04-13 01:00:00,46.9,45.3,29.80,WSW,243,1.0,1.0,94,0.00,,BKN070,0.00,VWS V14.01,2013-04-13 05:00:00,
2013-04-13 01:05:00,46.8,45.2,29.80,WSW,243,0.0,2.0,94,0.00,,CLR,0.00,VWS V14.01,2013-04-13 05:05:00,
2013-04-13 01:10:00,46.7,45.1,29.80,WSW,243,0.0,2.0,94,0.00,,CLR,0.00,VWS V14.01,2013-04-13 05:10:00,
2013-04-13 01:15:00,46.5,44.9,29.80,WSW,243,0.0,2.0,94,0.00,,CLR,0.00,VWS V14.01,2013-04-13 05:15:00,
2013-04-13 01:20:00,46.3,44.7,29.80,WSW,243,0.0,2.0,94,0.00,,CLR,0.00,VWS V14.01,2013-04-13 05:20:00,
2013-04-13 01:25:00,46.0,44.4,29.79,WSW,243,0.0,2.0,94,0.00,,CLR,0.00,VWS V14.01,2013-04-13 05:25:00,
2013-04-13 01:30:00,45.6,43.7,29.80,WSW,243,0.0,0.0,93,0.00,,CLR,0.00,VWS V14.01,2013-04-13 05:30:00,
2013-04-13 01:35:00,45.3,43.7,29.79,WSW,243,0.0,0.0,94,0.00,,CLR,0.00,VWS V14.01,2013-04-13 05:35:00,
2013-04-13 01:40:00,44.9,43.3,29.79,WSW,243,1.0,1.0,94,0.00,,CLR,0.00,VWS V14.01,2013-04-13 05:40:00,
2013-04-13 01:45:00,44.5,42.9,29.79,WSW,243,0.0,1.0,94,0.00,,CLR,0.00,VWS V14.01,2013-04-13 05:45:00,
2013-04-13 01:50:00,44.1,42.5,29.79,WSW,243,0.0,1.0,94,0.00,,CLR,0.00,VWS V14.01,2013-04-13 05:50:00,
2013-04-13 01:55:00,43.8,42.2,29.80,WSW,243,0.0,1.0,94,0.00,,CLR,0.00,VWS V14.01,2013-04-13 05:55:00,
2013-04-13 02:00:00,43.4,41.8,29.79,WSW,243,0.0,0.0,94,0.00,,CLR,0.00,VWS V14.01,2013-04-13 06:00:00,
2013-04-13 02:05:00,43.0,41.4,29.79,WSW,243,0.0,0.0,94,0.00,,CLR,0.00,VWS V14.01,2013-04-13 06:05:00,
2013-04-13 02:10:00,42.7,41.1,29.79,WSW,243,0.0,0.0,94,0.00,,CLR,0.00,VWS V14.01,2013-04-13 06:10:00,
2013-04-13 02:15:00,42.3,40.4,29.79,WSW,243,0.0,0.0,93,0.00,,CLR,0.00,VWS V14.01,2013-04-13 06:15:00,
2013-04-13 02:20:00,42.0,40.4,29.79,WSW,243,0.0,0.0,94,0.00,,CLR,0.00,VWS V14.01,2013-04-13 06:20:00,
2013-04-13 02:25:00,41.7,40.1,29.78,WSW,243,1.0,2.0,94,0.00,,CLR,0.00,VWS V14.01,2013-04-13 06:25:00,
2013-04-13 02:30:00,41.5,39.9,29.78,WSW,243,0.0,0.0,94,0.00,,CLR,0.00,VWS V14.01,2013-04-13 06:30:00,
2013-04-13 02:35:00,41.3,39.7,29.79,WSW,243,0.0,1.0,94,0.00,,CLR,0.00,VWS V14.01,2013-04-13 06:35:00,
2013-04-13 02:40:00,41.1,39.5,29.79,WSW,243,0.0,2.0,94,0.00,,CLR,0.00,VWS V14.01,2013-04-13 06:40:00,
2013-04-13 02:45:00,40.9,39.3,29.79,WSW,243,0.0,2.0,94,0.00,,CLR,0.00,VWS V14.01,2013-04-13 06:45:00,
2013-04-13 02:51:00,40.5,39.2,29.79,WSW,243,0.0,2.0,95,0.00,,CLR,0.00,VWS V14.01,2013-04-13 06:51:00,
2013-04-13 02:56:00,40.2,38.9,29.79,WSW,243,0.0,2.0,95,0.00,,CLR,0.00,VWS V14.01,2013-04-13 06:56:00,
2013-04-13 03:01:00,40.0,38.7,29.79,WSW,243,0.0,0.0,95,0.00,,CLR,0.00,VWS V14.01,2013-04-13 07:01:00,
2013-04-13 03:06:00,39.8,38.5,29.79,WSW,243,0.0,0.0,95,0.00,,CLR,0.00,VWS V14.01,2013-04-13 07:06:00,
2013-04-13 03:12:00,39.6,38.3,29.79,WSW,243,0.0,0.0,95,0.00,,CLR,0.00,VWS V14.01,2013-04-13 07:12:00,
2013-04-13 03:17:00,39.3,38.0,29.79,WSW,243,0.0,0.0,95,0.00,,CLR,0.00,VWS V14.01,2013-04-13 07:17:00,
2013-04-13 03:22:00,39.3,38.3,29.80,WSW,243,0.0,0.0,96,0.00,,CLR,0.00,VWS V14.01,2013-04-13 07:22:00,
2013-04-13 03:27:00,39.2,38.2,29.80,WSW,243,0.0,0.0,96,0.00,,CLR,0.00,VWS V14.01,2013-04-13 07:27:00,
2013-04-13 03:32:00,39.2,38.2,29.80,WSW,243,0.0,0.0,96,0.00,,CLR,0.00,VWS V14.01,2013-04-13 07:32:00,
2013-04-13 03:37:00,39.2,38.2,29.80,WSW,243,0.0,0.0,96,0.00,,CLR,0.00,VWS V14.01,2013-04-13 07:37:00,
2013-04-13 03:42:00,39.2,38.2,29.80,WSW,243,0.0,0.0,96,0.00,,CLR,0.00,VWS V14.01,2013-04-13 07:42:00,
2013-04-13 03:47:00,39.3,38.3,29.80,WSW,243,0.0,0.0,96,0.00,,CLR,0.00,VWS V14.01,2013-04-13 07:47:00,
2013-04-13 03:52:00,39.4,38.4,29.81,WSW,243,0.0,0.0,96,0.00,,CLR,0.00,VWS V14.01,2013-04-13 07:52:00,
2013-04-13 03:57:00,39.5,38.5,29.81,WSW,243,0.0,0.0,96,0.00,,CLR,0.00,VWS V14.01,2013-04-13 07:57:00,
2013-04-13 04:02:00,39.6,38.6,29.81,WSW,243,0.0,0.0,96,0.00,,OVC055,0.00,VWS V14.01,2013-04-13 08:02:00,
2013-04-13 04:07:00,39.7,38.9,29.81,WSW,243,0.0,0.0,97,0.00,,OVC055,0.00,VWS V14.01,2013-04-13 08:07:00,
2013-04-13 04:13:00,39.9,39.1,29.81,NNW,331,3.0,8.0,97,0.00,,OVC055,0.00,VWS V14.01,2013-04-13 08:13:00,
2013-04-13 04:18:00,40.3,39.5,29.80,WSW,242,0.0,8.0,97,0.00,,OVC055,0.00,VWS V14.01,2013-04-13 08:18:00,
2013-04-13 04:23:00,40.5,39.5,29.81,WSW,249,0.0,8.0,96,0.00,,OVC055,0.00,VWS V14.01,2013-04-13 08:23:00,
2013-04-13 04:28:00,40.7,39.7,29.81,WSW,249,0.0,8.0,96,0.00,,OVC055,0.00,VWS V14.01,2013-04-13 08:28:00,
2013-04-13 04:33:00,40.8,39.5,29.81,WSW,249,0.0,1.0,95,0.00,,OVC055,0.00,VWS V14.01,2013-04-13 08:33:00,
2013-04-13 04:38:00,40.9,39.6,29.81,WSW,249,0.0,1.0,95,0.00,,OVC055,0.00,VWS V14.01,2013-04-13 08:38:00,
2013-04-13 04:43:00,41.0,39.4,29.81,WSW,249,0.0,1.0,94,0.00,,OVC055,0.00,VWS V14.01,2013-04-13 08:43:00,
2013-04-13 04:48:00,41.0,39.4,29.81,WSW,249,0.0,1.0,94,0.00,,OVC055,0.00,VWS V14.01,2013-04-13 08:48:00,
2013-04-13 04:53:00,41.1,39.5,29.81,WSW,249,0.0,1.0,94,0.00,,OVC055,0.00,VWS V14.01,2013-04-13 08:53:00,
2013-04-13 04:58:00,41.1,39.5,29.81,WSW,249,0.0,2.0,94,0.00,,OVC055,0.00,VWS V14.01,2013-04-13 08:58:00,
2013-04-13 05:03:00,41.2,39.6,29.81,WSW,249,0.0,0.0,94,0.00,,BKN055,0.00,VWS V14.01,2013-04-13 09:03:00,
2013-04-13 05:08:00,41.1,39.5,29.81,WSW,249,0.0,0.0,94,0.00,,BKN055,0.00,VWS V14.01,2013-04-13 09:08:00,
2013-04-13 05:13:00,41.0,39.4,29.80,WSW,249,0.0,0.0,94,0.00,,BKN055,0.00,VWS V14.01,2013-04-13 09:13:00,
2013-04-13 05:18:00,40.8,39.2,29.80,WSW,249,0.0,0.0,94,0.00,,BKN055,0.00,VWS V14.01,2013-04-13 09:18:00,
2013-04-13 05:23:00,40.6,39.0,29.80,WSW,249,0.0,0.0,94,0.00,,BKN055,0.00,VWS V14.01,2013-04-13 09:23:00,
2013-04-13 05:28:00,40.4,38.5,29.80,WSW,249,0.0,0.0,93,0.00,,BKN055,0.00,VWS V14.01,2013-04-13 09:28:00,
2013-04-13 05:33:00,40.1,38.2,29.81,WSW,249,0.0,2.0,93,0.00,,BKN055,0.00,VWS V14.01,2013-04-13 09:33:00,
2013-04-13 05:38:00,39.9,38.0,29.81,WSW,249,1.0,2.0,93,0.00,,BKN055,0.00,VWS V14.01,2013-04-13 09:38:00,
2013-04-13 05:43:00,39.5,37.7,29.81,WSW,249,0.0,2.0,93,0.00,,BKN055,0.00,VWS V14.01,2013-04-13 09:43:00,
2013-04-13 05:49:00,39.2,37.3,29.82,WSW,249,0.0,2.0,93,0.00,,BKN055,0.00,VWS V14.01,2013-04-13 09:49:00,
2013-04-13 05:54:00,38.8,37.0,29.82,WSW,249,0.0,2.0,93,0.00,,BKN055,0.00,VWS V14.01,2013-04-13 09:54:00,
2013-04-13 05:59:00,38.5,36.7,29.82,WSW,249,0.0,2.0,93,0.00,,BKN055,0.06,VWS V14.01,2013-04-13 09:59:00,
2013-04-13 06:04:00,38.2,36.4,29.82,WSW,249,0.0,0.0,93,0.00,,BKN049,0.00,VWS V14.01,2013-04-13 10:04:00,
2013-04-13 06:09:00,38.0,36.2,29.83,WSW,249,0.0,0.0,93,0.00,,BKN049,0.00,VWS V14.01,2013-04-13 10:09:00,
2013-04-13 06:14:00,37.8,36.0,29.83,WSW,249,0.0,0.0,93,0.00,,BKN049,0.00,VWS V14.01,2013-04-13 10:14:00,
2013-04-13 06:19:00,37.6,35.8,29.83,WSW,249,0.0,0.0,93,0.00,,BKN049,0.00,VWS V14.01,2013-04-13 10:19:00,
2013-04-13 06:24:00,37.6,36.0,29.83,WSW,249,0.0,0.0,94,0.00,,BKN049,0.00,VWS V14.01,2013-04-13 10:24:00,
2013-04-13 06:30:00,37.5,35.9,29.83,WSW,249,0.0,0.0,94,0.00,,BKN049,0.00,VWS V14.01,2013-04-13 10:30:00,
2013-04-13 06:35:00,37.5,35.9,29.84,WSW,249,0.0,0.0,94,0.00,,BKN049,0.00,VWS V14.01,2013-04-13 10:35:00,
2013-04-13 06:40:00,37.6,36.0,29.84,WSW,249,0.0,0.0,94,0.00,,BKN049,0.00,VWS V14.01,2013-04-13 10:40:00,
2013-04-13 06:45:00,37.7,36.1,29.84,WSW,249,0.0,0.0,94,0.00,,BKN049,0.00,VWS V14.01,2013-04-13 10:45:00,
2013-04-13 06:50:00,37.8,36.2,29.84,WSW,249,0.0,0.0,94,0.00,,BKN049,0.00,VWS V14.01,2013-04-13 10:50:00,
2013-04-13 06:55:00,37.9,36.6,29.85,WSW,249,0.0,0.0,95,0.00,,BKN049,0.00,VWS V14.01,2013-04-13 10:55:00,
2013-04-13 07:00:00,38.0,36.4,29.85,WSW,249,0.0,0.0,94,0.00,,BKN049,0.00,VWS V14.01,2013-04-13 11:00:00,
2013-04-13 07:05:00,38.0,36.7,29.85,WSW,249,0.0,0.0,95,0.00,,CLR,0.00,VWS V14.01,2013-04-13 11:05:00,
2013-04-13 07:10:00,38.2,36.9,29.85,WSW,249,0.0,1.0,95,0.00,,CLR,0.00,VWS V14.01,2013-04-13 11:10:00,
2013-04-13 07:15:00,38.6,37.3,29.85,WSW,249,0.0,2.0,95,0.00,,CLR,0.00,VWS V14.01,2013-04-13 11:15:00,
2013-04-13 07:20:00,38.9,37.3,29.85,WSW,249,1.0,3.0,94,0.00,,CLR,0.00,VWS V14.01,2013-04-13 11:20:00,
2013-04-13 07:25:00,39.5,37.7,29.86,WSW,249,1.0,3.0,93,0.00,,CLR,0.00,VWS V14.01,2013-04-13 11:25:00,
2013-04-13 07:30:00,40.2,37.8,29.86,WSW,256,4.0,4.0,91,0.00,,CLR,0.00,VWS V14.01,2013-04-13 11:30:00,
2013-04-13 07:36:00,41.0,37.7,29.87,West,266,2.0,5.0,88,0.00,,CLR,0.00,VWS V14.01,2013-04-13 11:36:00,
2013-04-13 07:41:00,41.8,37.0,29.86,West,275,4.0,5.0,83,0.00,,CLR,0.00,VWS V14.01,2013-04-13 11:41:00,
2013-04-13 07:46:00,42.5,37.1,29.86,West,261,2.0,6.0,81,0.00,,CLR,0.00,VWS V14.01,2013-04-13 11:46:00,
2013-04-13 07:51:00,42.9,37.8,29.86,West,265,0.0,6.0,82,0.00,,CLR,0.00,VWS V14.01,2013-04-13 11:51:00,
2013-04-13 07:56:00,43.2,37.8,29.86,WSW,249,0.0,6.0,81,0.00,,CLR,0.00,VWS V14.01,2013-04-13 11:56:00,
2013-04-13 08:01:00,43.4,37.0,29.86,West,261,1.0,4.0,78,0.00,,OVC050,0.00,VWS V14.01,2013-04-13 12:01:00,
2013-04-13 08:07:00,43.7,37.0,29.87,West,260,3.0,6.0,77,0.00,,OVC050,0.00,VWS V14.01,2013-04-13 12:07:00,
2013-04-13 08:12:00,44.1,37.4,29.87,WNW,283,2.0,6.0,77,0.00,,OVC050,0.00,VWS V14.01,2013-04-13 12:12:00,
2013-04-13 08:17:00,44.6,37.2,29.88,West,260,6.0,8.0,75,0.00,,OVC050,0.00,VWS V14.01,2013-04-13 12:17:00,
2013-04-13 08:22:00,45.1,37.0,29.88,WSW,252,5.0,9.0,73,0.00,,OVC050,0.00,VWS V14.01,2013-04-13 12:22:00,
2013-04-13 08:27:00,45.4,37.3,29.88,WSW,251,7.0,9.0,73,0.00,,OVC050,0.00,VWS V14.01,2013-04-13 12:27:00,
2013-04-13 08:32:00,45.7,37.2,29.88,West,261,5.0,6.0,72,0.00,,OVC050,0.00,VWS V14.01,2013-04-13 12:32:00,
2013-04-13 08:37:00,45.9,37.4,29.88,West,263,5.0,6.0,72,0.00,,OVC050,0.00,VWS V14.01,2013-04-13 12:37:00,
2013-04-13 08:42:00,46.0,37.8,29.89,WSW,258,0.0,7.0,73,0.00,,OVC050,0.00,VWS V14.01,2013-04-13 12:42:00,
2013-04-13 08:47:00,46.0,36.8,29.89,WSW,257,4.0,8.0,70,0.00,,OVC050,0.00,VWS V14.01,2013-04-13 12:47:00,
2013-04-13 08:52:00,45.9,36.7,29.89,WSW,244,5.0,8.0,70,0.00,,OVC050,0.00,VWS V14.01,2013-04-13 12:52:00,
2013-04-13 08:57:00,46.0,37.1,29.89,WSW,247,4.0,10.0,71,0.00,,OVC050,0.00,VWS V14.01,2013-04-13 12:57:00,
2013-04-13 09:02:00,46.0,37.1,29.89,WSW,252,6.0,8.0,71,0.00,,SCT050,0.00,VWS V14.01,2013-04-13 13:02:00,
2013-04-13 09:08:00,46.1,37.6,29.89,West,277,2.0,9.0,72,0.00,,SCT050,0.00,VWS V14.01,2013-04-13 13:08:00,
2013-04-13 09:13:00,46.3,37.4,29.89,WSW,251,2.0,9.0,71,0.00,,SCT050,0.00,VWS V14.01,2013-04-13 13:13:00,
2013-04-13 09:18:00,46.4,37.2,29.88,WSW,258,2.0,9.0,70,0.00,,SCT050,0.00,VWS V14.01,2013-04-13 13:18:00,
2013-04-13 09:23:00,46.9,38.0,29.88,WSW,254,0.0,9.0,71,0.00,,SCT050,0.00,VWS V14.01,2013-04-13 13:23:00,
2013-04-13 09:28:00,47.4,37.8,29.88,WSW,237,2.0,9.0,69,0.00,,SCT050,0.00,VWS V14.01,2013-04-13 13:28:00,
2013-04-13 09:33:00,47.8,38.1,29.88,West,261,3.0,9.0,69,0.00,,SCT050,0.00,VWS V14.01,2013-04-13 13:33:00,
2013-04-13 09:38:00,48.5,38.8,29.88,NW,308,0.0,9.0,69,0.00,,SCT050,0.00,VWS V14.01,2013-04-13 13:38:00,
2013-04-13 09:44:00,49.2,38.0,29.88,WSW,254,5.0,13.0,65,0.00,,SCT050,0.00,VWS V14.01,2013-04-13 13:44:00,
2013-04-13 09:49:00,49.5,38.6,29.87,SW,229,3.0,13.0,66,0.00,,SCT050,0.00,VWS V14.01,2013-04-13 13:49:00,
2013-04-13 09:54:00,49.9,38.6,29.87,West,265,5.0,13.0,65,0.00,,SCT050,0.00,VWS V14.01,2013-04-13 13:54:00,
2013-04-13 09:59:00,49.9,38.6,29.88,West,259,3.0,13.0,65,0.00,,SCT050,0.00,VWS V14.01,2013-04-13 13:59:00,
2013-04-13 10:04:00,49.9,37.4,29.88,NW,319,3.0,10.0,62,0.00,,SCT050,0.00,VWS V14.01,2013-04-13 14:04:00,
2013-04-13 10:09:00,50.1,38.0,29.87,West,264,1.0,10.0,63,0.00,,SCT050,0.00,VWS V14.01,2013-04-13 14:09:00,
2013-04-13 10:14:00,50.6,38.1,29.88,SW,234,3.0,10.0,62,0.00,,SCT050,0.00,VWS V14.01,2013-04-13 14:14:00,
2013-04-13 10:20:00,50.6,37.7,29.88,NW,309,4.0,15.0,61,0.00,,SCT050,0.00,VWS V14.01,2013-04-13 14:20:00,
2013-04-13 10:25:00,50.8,38.7,29.88,WNW,296,3.0,15.0,63,0.00,,SCT050,0.00,VWS V14.01,2013-04-13 14:25:00,
2013-04-13 10:30:00,51.1,38.1,29.88,WSW,249,7.0,15.0,61,0.00,,SCT050,0.00,VWS V14.01,2013-04-13 14:30:00,
2013-04-13 10:35:00,51.3,37.5,29.88,NW,305,3.0,8.0,59,0.00,,SCT050,0.00,VWS V14.01,2013-04-13 14:35:00,
2013-04-13 10:40:00,51.4,38.4,29.88,West,278,3.0,8.0,61,0.00,,SCT050,0.00,VWS V14.01,2013-04-13 14:40:00,
2013-04-13 10:45:00,51.5,37.7,29.89,NW,318,2.0,8.0,59,0.00,,SCT050,0.00,VWS V14.01,2013-04-13 14:45:00,
2013-04-13 10:50:00,51.4,37.6,29.89,WSW,255,4.0,9.0,59,0.00,,SCT050,0.00,VWS V14.01,2013-04-13 14:50:00,
2013-04-13 10:55:00,51.0,37.2,29.89,West,266,3.0,11.0,59,0.00,,SCT050,0.00,VWS V14.01,2013-04-13 14:55:00,
2013-04-13 11:00:00,50.8,37.0,29.89,WSW,245,9.0,9.0,59,0.00,,SCT050,0.00,VWS V14.01,2013-04-13 15:00:00,
2013-04-13 11:05:00,50.5,36.7,29.89,WNW,287,7.0,13.0,59,0.00,,BKN050,0.00,VWS V14.01,2013-04-13 15:05:00,
2013-04-13 11:11:00,50.3,37.0,29.89,NNW,340,5.0,13.0,60,0.00,,BKN050,0.00,VWS V14.01,2013-04-13 15:11:00,
2013-04-13 11:16:00,50.3,36.5,29.89,WNW,287,5.0,13.0,59,0.00,,BKN050,0.00,VWS V14.01,2013-04-13 15:16:00,
2013-04-13 11:22:00,50.3,36.5,29.89,WSW,255,4.0,13.0,59,0.00,,BKN050,0.00,VWS V14.01,2013-04-13 15:22:00,
2013-04-13 11:27:00,50.4,36.6,29.89,NW,316,3.0,13.0,59,0.00,,BKN050,0.00,VWS V14.01,2013-04-13 15:27:00,
2013-04-13 11:32:00,50.6,36.8,29.89,NW,313,3.0,9.0,59,0.00,,BKN050,0.00,VWS V14.01,2013-04-13 15:32:00,
2013-04-13 11:37:00,51.0,37.6,29.89,WNW,288,2.0,9.0,60,0.00,,BKN050,0.00,VWS V14.01,2013-04-13 15:37:00,
2013-04-13 11:42:00,51.3,37.0,29.89,WNW,293,3.0,10.0,58,0.00,,BKN050,0.00,VWS V14.01,2013-04-13 15:42:00,
2013-04-13 11:47:00,51.6,37.8,29.89,WSW,245,6.0,14.0,59,0.00,,BKN050,0.00,VWS V14.01,2013-04-13 15:47:00,
2013-04-13 11:52:00,51.6,36.4,29.89,WSW,241,5.0,14.0,56,0.00,,BKN050,0.00,VWS V14.01,2013-04-13 15:52:00,
2013-04-13 11:57:00,51.8,38.4,29.88,SSW,210,1.0,14.0,60,0.00,,BKN050,0.00,VWS V14.01,2013-04-13 15:57:00,
2013-04-13 12:02:00,52.0,37.7,29.88,WSW,241,5.0,12.0,58,0.00,,OVC049,0.00,VWS V14.01,2013-04-13 16:02:00,
2013-04-13 12:07:00,52.3,38.4,29.88,West,261,5.0,13.0,59,0.00,,OVC049,0.00,VWS V14.01,2013-04-13 16:07:00,
2013-04-13 12:12:00,52.2,37.9,29.88,West,273,3.0,13.0,58,0.00,,OVC049,0.00,VWS V14.01,2013-04-13 16:12:00,
2013-04-13 12:18:00,52.2,37.9,29.88,WSW,254,3.0,13.0,58,0.00,,OVC049,0.00,VWS V14.01,2013-04-13 16:18:00,
2013-04-13 12:23:00,52.5,38.2,29.88,WSW,239,8.0,13.0,58,0.00,,OVC049,0.00,VWS V14.01,2013-04-13 16:23:00,
2013-04-13 12:28:00,52.5,38.6,29.88,SW,223,6.0,13.0,59,0.00,,OVC049,0.00,VWS V14.01,2013-04-13 16:28:00,
2013-04-13 12:33:00,52.5,38.6,29.88,SW,235,5.0,9.0,59,0.00,,OVC049,0.00,VWS V14.01,2013-04-13 16:33:00,
2013-04-13 12:38:00,52.4,38.1,29.88,SW,219,6.0,13.0,58,0.00,,OVC049,0.00,VWS V14.01,2013-04-13 16:38:00,
2013-04-13 12:43:00,52.2,37.4,29.88,SW,235,7.0,13.0,57,0.00,,OVC049,0.00,VWS V14.01,2013-04-13 16:43:00,
2013-04-13 12:48:00,52.1,37.3,29.88,WSW,251,3.0,13.0,57,0.00,,OVC049,0.00,VWS V14.01,2013-04-13 16:48:00,
2013-04-13 12:53:00,52.4,38.5,29.87,WNW,283,3.0,13.0,59,0.00,,OVC049,0.00,VWS V14.01,2013-04-13 16:53:00,
2013-04-13 12:58:00,53.1,37.4,29.88,WSW,244,4.0,13.0,55,0.00,,OVC049,0.00,VWS V14.01,2013-04-13 16:58:00,
2013-04-13 13:04:00,53.0,36.8,29.88,WSW,243,10.0,14.0,54,0.00,,OVC049,0.00,VWS V14.01,2013-04-13 17:04:00,
2013-04-13 13:09:00,52.9,37.2,29.87,WSW,251,5.0,14.0,55,0.00,,OVC049,0.00,VWS V14.01,2013-04-13 17:09:00,
2013-04-13 13:14:00,52.7,37.9,29.88,WSW,246,4.0,14.0,57,0.00,,OVC049,0.00,VWS V14.01,2013-04-13 17:14:00,
2013-04-13 13:19:00,52.7,37.9,29.87,WNW,302,5.0,14.0,57,0.00,,OVC049,0.00,VWS V14.01,2013-04-13 17:19:00,
2013-04-13 13:24:00,52.5,36.3,29.87,West,259,4.0,14.0,54,0.00,,OVC049,0.00,VWS V14.01,2013-04-13 17:24:00,
2013-04-13 13:29:00,52.3,37.5,29.87,WSW,255,10.0,14.0,57,0.00,,OVC049,0.00,VWS V14.01,2013-04-13 17:29:00,
2013-04-13 13:34:00,52.1,37.3,29.87,West,274,3.0,9.0,57,0.00,,OVC049,0.00,VWS V14.01,2013-04-13 17:34:00,
2013-04-13 13:39:00,52.1,37.8,29.87,WSW,253,7.0,13.0,58,0.00,,OVC049,0.00,VWS V14.01,2013-04-13 17:39:00,
2013-04-13 13:44:00,52.2,37.4,29.87,WSW,256,4.0,13.0,57,0.00,,OVC049,0.00,VWS V14.01,2013-04-13 17:44:00,
2013-04-13 13:49:00,52.3,38.0,29.87,WSW,256,6.0,13.0,58,0.00,,OVC049,0.00,VWS V14.01,2013-04-13 17:49:00,
2013-04-13 13:55:00,52.3,37.5,29.88,WNW,288,2.0,13.0,57,0.00,,OVC049,0.00,VWS V14.01,2013-04-13 17:55:00,
2013-04-13 14:00:00,52.3,37.5,29.87,SW,235,7.0,13.0,57,0.00,,OVC049,0.00,VWS V14.01,2013-04-13 18:00:00,
2013-04-13 14:05:00,52.3,37.5,29.87,WSW,239,7.0,10.0,57,0.00,,OVC055,0.00,VWS V14.01,2013-04-13 18:05:00,
2013-04-13 14:10:00,52.1,37.3,29.88,WSW,242,6.0,12.0,57,0.00,,OVC055,0.00,VWS V14.01,2013-04-13 18:10:00,
2013-04-13 14:15:00,51.8,37.5,29.88,West,265,2.0,12.0,58,0.00,,OVC055,0.00,VWS V14.01,2013-04-13 18:15:00,
2013-04-13 14:20:00,51.7,37.4,29.88,West,271,4.0,13.0,58,0.00,,OVC055,0.00,VWS V14.01,2013-04-13 18:20:00,
2013-04-13 14:25:00,51.4,37.6,29.88,West,266,3.0,13.0,59,0.00,,OVC055,0.00,VWS V14.01,2013-04-13 18:25:00,
2013-04-13 14:27:00,51.4,37.6,29.88,West,271,7.0,13.0,59,0.00,,OVC055,0.00,VWS V14.01,2013-04-13 18:27:00,
2013-04-13 14:32:00,51.3,37.5,29.88,SW,217,5.0,13.0,59,0.00,,OVC055,0.00,VWS V14.01,2013-04-13 18:32:00,
2013-04-13 14:37:00,51.2,37.4,29.88,West,261,4.0,13.0,59,0.00,,OVC055,0.00,VWS V14.01,2013-04-13 18:37:00,
2013-04-13 14:42:00,51.0,36.8,29.88,WSW,250,5.0,13.0,58,0.00,,OVC055,0.00,VWS V14.01,2013-04-13 18:42:00,
2013-04-13 14:47:00,51.0,37.6,29.88,West,274,5.0,13.0,60,0.00,,OVC055,0.00,VWS V14.01,2013-04-13 18:47:00,
2013-04-13 14:53:00,51.0,37.2,29.88,West,281,2.0,13.0,59,0.00,,OVC055,0.00,VWS V14.01,2013-04-13 18:53:00,
2013-04-13 14:58:00,50.9,37.1,29.88,WSW,256,7.0,13.0,59,0.00,,OVC055,0.00,VWS V14.01,2013-04-13 18:58:00,
2013-04-13 15:03:00,51.0,37.2,29.88,West,262,5.0,12.0,59,0.00,,OVC060,0.00,VWS V14.01,2013-04-13 19:03:00,
2013-04-13 15:08:00,51.2,37.8,29.88,SW,232,4.0,12.0,60,0.00,,OVC060,0.00,VWS V14.01,2013-04-13 19:08:00,
2013-04-13 15:13:00,51.2,37.4,29.88,West,259,1.0,14.0,59,0.00,,OVC060,0.00,VWS V14.01,2013-04-13 19:13:00,
2013-04-13 15:18:00,51.1,37.3,29.88,WSW,240,7.0,14.0,59,0.00,,OVC060,0.00,VWS V14.01,2013-04-13 19:18:00,
2013-04-13 15:23:00,51.3,38.3,29.88,WSW,250,2.0,14.0,61,0.00,,OVC060,0.00,VWS V14.01,2013-04-13 19:23:00,
2013-04-13 15:28:00,51.6,37.8,29.89,West,271,8.0,16.0,59,0.00,,OVC060,0.00,VWS V14.01,2013-04-13 19:28:00,
2013-04-13 15:33:00,51.7,37.4,29.88,WNW,300,5.0,8.0,58,0.00,,OVC060,0.00,VWS V14.01,2013-04-13 19:33:00,
2013-04-13 15:38:00,52.0,38.6,29.88,WNW,292,4.0,10.0,60,0.00,,OVC060,0.00,VWS V14.01,2013-04-13 19:38:00,
2013-04-13 15:43:00,52.0,37.7,29.88,WNW,285,7.0,19.0,58,0.00,,OVC060,0.00,VWS V14.01,2013-04-13 19:43:00,
2013-04-13 15:48:00,52.0,37.7,29.88,WNW,295,10.0,19.0,58,0.00,,OVC060,0.00,VWS V14.01,2013-04-13 19:48:00,
2013-04-13 15:53:00,52.0,37.7,29.88,WNW,287,5.0,19.0,58,0.00,,OVC060,0.00,VWS V14.01,2013-04-13 19:53:00,
2013-04-13 15:58:00,51.9,37.6,29.88,NW,304,6.0,19.0,58,0.00,,OVC060,0.00,VWS V14.01,2013-04-13 19:58:00,
2013-04-13 16:03:00,52.2,38.3,29.87,West,263,6.0,13.0,59,0.00,,BKN060,0.00,VWS V14.01,2013-04-13 20:03:00,
2013-04-13 16:08:00,52.6,38.3,29.86,West,280,3.0,13.0,58,0.00,,BKN060,0.00,VWS V14.01,2013-04-13 20:08:00,
2013-04-13 16:13:00,52.9,38.5,29.86,NW,314,6.0,13.0,58,0.00,,BKN060,0.00,VWS V14.01,2013-04-13 20:13:00,
2013-04-13 16:18:00,53.4,38.6,29.85,WNW,288,3.0,13.0,57,0.00,,BKN060,0.00,VWS V14.01,2013-04-13 20:18:00,
2013-04-13 16:23:00,54.3,39.4,29.85,WSW,243,6.0,13.0,57,0.00,,BKN060,0.00,VWS V14.01,2013-04-13 20:23:00,
2013-04-13 16:28:00,54.7,37.9,29.85,WSW,251,6.0,13.0,53,0.00,,BKN060,0.00,VWS V14.01,2013-04-13 20:28:00,
2013-04-13 16:33:00,55.1,38.8,29.85,NNW,329,6.0,9.0,54,0.00,,BKN060,0.00,VWS V14.01,2013-04-13 20:33:00,
2013-04-13 16:38:00,54.9,38.6,29.86,West,262,9.0,11.0,54,0.00,,BKN060,0.00,VWS V14.01,2013-04-13 20:38:00,
2013-04-13 16:43:00,54.5,38.2,29.86,WNW,303,3.0,14.0,54,0.00,,BKN060,0.00,VWS V14.01,2013-04-13 20:43:00,
2013-04-13 16:48:00,55.0,38.7,29.87,West,276,5.0,14.0,54,0.00,,BKN060,0.00,VWS V14.01,2013-04-13 20:48:00,
2013-04-13 16:53:00,55.2,39.3,29.87,NNW,336,4.0,14.0,55,0.00,,BKN060,0.00,VWS V14.01,2013-04-13 20:53:00,
2013-04-13 16:58:00,54.8,39.4,29.88,WNW,291,4.0,17.0,56,0.00,,BKN060,0.00,VWS V14.01,2013-04-13 20:58:00,
2013-04-13 17:03:00,54.3,38.0,29.87,NNW,338,3.0,9.0,54,0.00,,SCT055,0.00,VWS V14.01,2013-04-13 21:03:00,
2013-04-13 17:08:00,54.4,38.6,29.87,NW,320,4.0,9.0,55,0.00,,SCT055,0.00,VWS V14.01,2013-04-13 21:08:00,
2013-04-13 17:13:00,55.2,38.4,29.87,NW,310,4.0,12.0,53,0.00,,SCT055,0.00,VWS V14.01,2013-04-13 21:13:00,
2013-04-13 17:18:00,55.8,38.5,29.87,WNW,289,4.0,12.0,52,0.00,,SCT055,0.00,VWS V14.01,2013-04-13 21:18:00,
2013-04-13 17:23:00,56.3,38.9,29.87,WNW,293,2.0,12.0,52,0.00,,SCT055,0.00,VWS V14.01,2013-04-13 21:23:00,
2013-04-13 17:28:00,56.1,38.7,29.87,NNW,345,6.0,12.0,52,0.00,,SCT055,0.00,VWS V14.01,2013-04-13 21:28:00,
2013-04-13 17:33:00,56.4,39.0,29.87,WSW,257,3.0,4.0,52,0.00,,SCT055,0.06,VWS V14.01,2013-04-13 21:33:00,
2013-04-13 17:38:00,57.1,39.2,29.87,North,353,6.0,8.0,51,0.00,,SCT055,0.00,VWS V14.01,2013-04-13 21:38:00,
2013-04-13 17:43:00,57.1,38.7,29.87,NW,317,2.0,8.0,50,0.00,,SCT055,0.00,VWS V14.01,2013-04-13 21:43:00,
2013-04-13 17:48:00,56.8,38.9,29.88,NW,310,3.0,12.0,51,0.00,,SCT055,0.00,VWS V14.01,2013-04-13 21:48:00,
2013-04-13 17:53:00,56.6,38.7,29.88,NW,319,1.0,12.0,51,0.00,,SCT055,0.00,VWS V14.01,2013-04-13 21:53:00,
2013-04-13 17:58:00,57.0,38.6,29.88,West,278,2.0,12.0,50,0.00,,SCT055,0.00,VWS V14.01,2013-04-13 21:58:00,
2013-04-13 18:03:00,57.1,38.1,29.88,West,277,6.0,8.0,49,0.00,,CLR,0.00,VWS V14.01,2013-04-13 22:03:00,
2013-04-13 18:08:00,57.1,38.1,29.88,WNW,296,2.0,9.0,49,0.00,,CLR,0.00,VWS V14.01,2013-04-13 22:08:00,
2013-04-13 18:13:00,57.3,38.3,29.88,WSW,255,5.0,9.0,49,0.00,,CLR,0.00,VWS V14.01,2013-04-13 22:13:00,
2013-04-13 18:18:00,57.3,38.3,29.88,NNW,331,4.0,9.0,49,0.00,,CLR,0.00,VWS V14.01,2013-04-13 22:18:00,
2013-04-13 18:23:00,57.0,39.1,29.88,NNW,329,1.0,9.0,51,0.00,,CLR,0.00,VWS V14.01,2013-04-13 22:23:00,
2013-04-13 18:28:00,56.0,38.6,29.89,North,359,3.0,9.0,52,0.00,,CLR,0.00,VWS V14.01,2013-04-13 22:28:00,
2013-04-13 18:33:00,54.8,38.0,29.88,WNW,292,1.0,9.0,53,0.00,,CLR,0.00,VWS V14.01,2013-04-13 22:33:00,
2013-04-13 18:38:00,54.3,38.0,29.88,North,355,3.0,9.0,54,0.00,,CLR,0.00,VWS V14.01,2013-04-13 22:38:00,
2013-04-13 18:43:00,53.9,38.1,29.88,North,5,4.0,9.0,55,0.00,,CLR,0.00,VWS V14.01,2013-04-13 22:43:00,
2013-04-13 18:48:00,53.5,37.3,29.89,North,5,2.0,9.0,54,0.00,,CLR,0.00,VWS V14.01,2013-04-13 22:48:00,
2013-04-13 18:53:00,53.4,37.2,29.89,NNW,344,6.0,9.0,54,0.00,,CLR,0.00,VWS V14.01,2013-04-13 22:53:00,
2013-04-13 18:58:00,53.3,37.1,29.89,North,358,0.0,9.0,54,0.00,,CLR,0.00,VWS V14.01,2013-04-13 22:58:00,
2013-04-13 19:03:00,53.8,37.6,29.88,WNW,287,2.0,4.0,54,0.00,,CLR,0.00,VWS V14.01,2013-04-13 23:03:00,
2013-04-13 19:08:00,53.5,37.3,29.88,West,280,0.0,7.0,54,0.00,,CLR,0.00,VWS V14.01,2013-04-13 23:08:00,
2013-04-13 19:13:00,53.2,37.0,29.88,West,280,0.0,7.0,54,0.00,,CLR,0.00,VWS V14.01,2013-04-13 23:13:00,
2013-04-13 19:18:00,52.8,37.5,29.89,NNW,329,3.0,7.0,56,0.00,,CLR,0.00,VWS V14.01,2013-04-13 23:18:00,
2013-04-13 19:23:00,52.2,37.0,29.89,NW,318,1.0,7.0,56,0.00,,CLR,0.00,VWS V14.01,2013-04-13 23:23:00,
2013-04-13 19:28:00,51.7,37.0,29.89,NW,311,0.0,7.0,57,0.00,,CLR,0.00,VWS V14.01,2013-04-13 23:28:00,
2013-04-13 19:33:00,51.1,36.8,29.89,WNW,295,0.0,4.0,58,0.00,,CLR,0.00,VWS V14.01,2013-04-13 23:33:00,
2013-04-13 19:38:00,50.7,37.3,29.89,WNW,300,0.0,4.0,60,0.00,,CLR,0.00,VWS V14.01,2013-04-13 23:38:00,
2013-04-13 19:43:00,50.2,37.7,29.90,NW,312,0.0,4.0,62,0.00,,CLR,0.00,VWS V14.01,2013-04-13 23:43:00,
2013-04-13 19:48:00,49.6,37.1,29.90,NNE,13,0.0,4.0,62,0.00,,CLR,0.00,VWS V14.01,2013-04-13 23:48:00,
2013-04-13 19:53:00,49.1,36.7,29.90,NNE,13,0.0,4.0,62,0.00,,CLR,0.00,VWS V14.01,2013-04-13 23:53:00,
2013-04-13 19:58:00,48.6,37.4,29.90,North,6,0.0,4.0,65,0.00,,CLR,0.00,VWS V14.01,2013-04-13 23:58:00,
2013-04-13 20:03:00,48.0,37.6,29.90,North,11,0.0,0.0,67,0.00,,CLR,0.00,VWS V14.01,2013-04-14 00:03:00,
2013-04-13 20:08:00,47.4,37.8,29.90,North,9,0.0,0.0,69,0.00,,CLR,0.00,VWS V14.01,2013-04-14 00:08:00,
2013-04-13 20:13:00,46.8,37.9,29.90,NNE,12,1.0,2.0,71,0.00,,CLR,0.00,VWS V14.01,2013-04-14 00:13:00,
2013-04-13 20:18:00,46.2,37.7,29.91,NNE,12,2.0,2.0,72,0.00,,CLR,0.00,VWS V14.01,2013-04-14 00:18:00,
2013-04-13 20:23:00,45.6,37.5,29.91,NNE,13,0.0,2.0,73,0.00,,CLR,0.00,VWS V14.01,2013-04-14 00:23:00,
2013-04-13 20:28:00,45.1,37.0,29.91,NNE,13,0.0,2.0,73,0.00,,CLR,0.00,VWS V14.01,2013-04-14 00:28:00,
2013-04-13 20:33:00,44.7,36.6,29.91,NNE,13,0.0,0.0,73,0.00,,CLR,0.00,VWS V14.01,2013-04-14 00:33:00,
2013-04-13 20:38:00,44.3,36.9,29.92,NNE,13,0.0,0.0,75,0.00,,CLR,0.00,VWS V14.01,2013-04-14 00:38:00,
2013-04-13 20:43:00,44.0,36.9,29.92,NNE,13,0.0,0.0,76,0.00,,CLR,0.00,VWS V14.01,2013-04-14 00:43:00,
2013-04-13 20:48:00,43.8,37.1,29.92,NNE,13,0.0,0.0,77,0.00,,CLR,0.00,VWS V14.01,2013-04-14 00:48:00,
2013-04-13 20:53:00,43.5,36.8,29.92,NNE,13,0.0,0.0,77,0.00,,CLR,0.00,VWS V14.01,2013-04-14 00:53:00,
2013-04-13 20:58:00,43.3,36.9,29.92,NNE,13,0.0,0.0,78,0.00,,CLR,0.00,VWS V14.01,2013-04-14 00:58:00,
2013-04-13 21:03:00,43.1,36.7,29.93,NNE,13,0.0,0.0,78,0.00,,SCT090,0.00,VWS V14.01,2013-04-14 01:03:00,
2013-04-13 21:08:00,43.0,36.9,29.92,NNE,13,0.0,0.0,79,0.00,,SCT090,0.00,VWS V14.01,2013-04-14 01:08:00,
2013-04-13 21:13:00,42.8,36.8,29.92,NNE,13,0.0,0.0,79,0.00,,SCT090,0.00,VWS V14.01,2013-04-14 01:13:00,
2013-04-13 21:18:00,42.8,37.1,29.93,NNE,13,0.0,1.0,80,0.00,,SCT090,0.00,VWS V14.01,2013-04-14 01:18:00,
2013-04-13 21:23:00,42.7,37.0,29.93,NNE,13,0.0,1.0,80,0.00,,SCT090,0.00,VWS V14.01,2013-04-14 01:23:00,
2013-04-13 21:28:00,42.6,36.9,29.93,NNE,13,0.0,1.0,80,0.00,,SCT090,0.00,VWS V14.01,2013-04-14 01:28:00,
2013-04-13 21:33:00,42.4,36.7,29.93,NNE,13,0.0,0.0,80,0.00,,SCT090,0.06,VWS V14.01,2013-04-14 01:33:00,
2013-04-13 21:38:00,42.2,36.5,29.93,NNE,13,0.0,0.0,80,0.00,,SCT090,0.00,VWS V14.01,2013-04-14 01:38:00,
2013-04-13 21:43:00,42.0,36.6,29.93,NNE,13,0.0,0.0,81,0.00,,SCT090,0.00,VWS V14.01,2013-04-14 01:43:00,
2013-04-13 21:48:00,41.8,36.4,29.93,NNE,13,0.0,0.0,81,0.00,,SCT090,0.00,VWS V14.01,2013-04-14 01:48:00,
2013-04-13 21:53:00,41.7,36.6,29.94,NNE,13,0.0,2.0,82,0.00,,SCT090,0.00,VWS V14.01,2013-04-14 01:53:00,
2013-04-13 21:58:00,41.4,36.3,29.93,NNE,13,0.0,2.0,82,0.00,,SCT090,0.00,VWS V14.01,2013-04-14 01:58:00,
2013-04-13 22:03:00,41.2,36.1,29.94,NNE,12,0.0,0.0,82,0.00,,BKN100,0.00,VWS V14.01,2013-04-14 02:03:00,
2013-04-13 22:08:00,40.9,36.1,29.94,NNE,12,0.0,0.0,83,0.00,,BKN100,0.00,VWS V14.01,2013-04-14 02:08:00,
2013-04-13 22:13:00,40.7,36.0,29.94,NNE,12,0.0,0.0,83,0.00,,BKN100,0.00,VWS V14.01,2013-04-14 02:13:00,
2013-04-13 22:18:00,40.6,35.8,29.94,NNE,12,0.0,0.0,83,0.00,,BKN100,0.00,VWS V14.01,2013-04-14 02:18:00,
2013-04-13 22:23:00,40.4,36.0,29.94,NNE,12,0.0,0.0,84,0.00,,BKN100,0.00,VWS V14.01,2013-04-14 02:23:00,
2013-04-13 22:28:00,40.2,35.5,29.93,North,9,0.0,0.0,83,0.00,,BKN100,0.00,VWS V14.01,2013-04-14 02:28:00,
2013-04-13 22:33:00,40.1,35.7,29.93,North,9,0.0,0.0,84,0.00,,BKN100,0.00,VWS V14.01,2013-04-14 02:33:00,
2013-04-13 22:38:00,40.0,35.6,29.94,North,9,0.0,0.0,84,0.00,,BKN100,0.00,VWS V14.01,2013-04-14 02:38:00,
2013-04-13 22:43:00,39.9,35.8,29.94,North,9,0.0,1.0,85,0.00,,BKN100,0.00,VWS V14.01,2013-04-14 02:43:00,
2013-04-13 22:48:00,39.8,35.7,29.93,North,9,0.0,1.0,85,0.00,,BKN100,0.00,VWS V14.01,2013-04-14 02:48:00,
2013-04-13 22:53:00,39.7,35.9,29.93,North,9,1.0,1.0,86,0.00,,BKN100,0.00,VWS V14.01,2013-04-14 02:53:00,
2013-04-13 22:58:00,39.6,35.8,29.93,North,9,0.0,1.0,86,0.00,,BKN100,0.00,VWS V14.01,2013-04-14 02:58:00,
2013-04-13 23:03:00,39.6,36.1,29.94,SSW,202,0.0,2.0,87,0.00,,OVC090,0.00,VWS V14.01,2013-04-14 03:03:00,
2013-04-13 23:08:00,39.8,36.2,29.94,SSW,202,1.0,2.0,87,0.00,,OVC090,0.00,VWS V14.01,2013-04-14 03:08:00,
2013-04-13 23:13:00,39.9,36.3,29.93,NNW,333,0.0,2.0,87,0.00,,OVC090,0.00,VWS V14.01,2013-04-14 03:13:00,
2013-04-13 23:18:00,39.9,36.3,29.93,NNW,333,0.0,2.0,87,0.00,,OVC090,0.00,VWS V14.01,2013-04-14 03:18:00,
2013-04-13 23:23:00,39.9,36.3,29.93,NNW,335,0.0,2.0,87,0.00,,OVC090,0.00,VWS V14.01,2013-04-14 03:23:00,
2013-04-13 23:28:00,40.0,36.5,29.93,NNW,336,0.0,2.0,87,0.00,,OVC090,0.00,VWS V14.01,2013-04-14 03:28:00,
2013-04-13 23:33:00,40.0,36.2,29.93,NNW,336,0.0,0.0,86,0.00,,OVC090,0.00,VWS V14.01,2013-04-14 03:33:00,
2013-04-13 23:39:00,40.0,36.2,29.93,NNW,336,0.0,0.0,86,0.00,,OVC090,0.00,VWS V14.01,2013-04-14 03:39:00,
2013-04-13 23:43:00,40.0,36.2,29.93,NNW,336,0.0,0.0,86,0.00,,OVC090,0.00,VWS V14.01,2013-04-14 03:43:00,
2013-04-13 23:48:00,39.9,36.1,29.94,NNW,336,0.0,0.0,86,0.00,,OVC090,0.00,VWS V14.01,2013-04-14 03:48:00,
2013-04-13 23:54:00,39.9,36.1,29.94,NNW,336,0.0,0.0,86,0.00,,OVC090,0.00,VWS V14.01,2013-04-14 03:54:00,
2013-04-13 23:59:00,39.9,36.1,29.94,NNW,336,0.0,0.0,86,0.00,,OVC090,0.00,VWS V14.01,2013-04-14 03:59:00,